[[{"header":{"parameterUnit":"m.s-1","parameterCategory":1,"la1":30.2991,"la2":30.254,"lo1":-89.0895,"lo2":-89.0444,"dy":0.0017,"dx":0.0017,"nx":28,"ny":28,"refTime":"2025-04-17T09:00:00:Z","depth":0,"parameterNumber":2,"parameterNumberName":"U-component_of_WINDS"},"data":[0,0,0,0,0,0,0,0,0,0,0,0,0,0,0,0,0,0,0,0,0,0,0,0,0,0,0,0,0,0,0,0,0,0,0,0,0,0,0,0,0,0,0,0,0,0,0,0,0,0,0,0,0,0,0,0,0,0,-1.893,-1.8931,0,-1.9039,-1.904,-1.9042,-1.9076,-1.9076,-1.9075,-1.9075,-1.9188,-1.9192,-1.9195,0,0,0,0,0,0,0,0,0,0,0,0,0,-1.8754,-1.8757,-1.893,-1.8931,-1.8933,-1.9039,-1.904,-1.9042,-1.9076,-1.9076,-1.9075,-1.9075,-1.9187,-1.9191,-1.9196,0,0,0,0,0,0,0,0,0,0,0,0,0,-1.8844,-1.8758,-1.893,-1.8963,-1.8967,-1.9039,-1.9041,-1.9042,-1.9077,-1.9076,-1.9075,-1.9074,-1.9186,-1.9191,-1.9196,-1.9244,0,0,-1.9212,-1.9215,0,0,0,0,0,0,0,0,-1.8838,-1.885,-1.8956,-1.8961,-1.8965,-1.9043,-1.902,-1.911,-1.9077,-1.9035,-1.9075,-1.9074,-1.9141,-1.915,-1.9172,-1.9249,-1.9254,-1.9213,-1.9216,-1.9218,-1.922,0,0,0,0,0,0,0,-1.8832,-1.8846,-1.8973,-1.8958,-1.8963,-1.8973,-1.8985,-1.9037,-1.9091,-1.9039,-1.9041,-1.9054,-1.9143,-1.9167,-1.9175,-1.9256,-1.9213,-1.9217,-1.9221,-1.9223,-1.9379,-1.938,0,0,0,0,0,0,-1.882,-1.884,-1.897,-1.8977,-1.8899,-1.8977,-1.899,-1.9019,-1.909,-1.9101,-1.9054,-1.9055,-1.9158,-1.9169,-1.9179,-1.924,-1.9218,-1.9223,-1.9226,-1.9378,-1.9379,-1.938,0,0,0,0,0,0,-1.8816,-1.8831,-1.8965,-1.8909,-1.8927,-1.898,-1.9013,-1.9022,-1.9045,-1.9102,-1.9112,-1.9068,-1.9158,-1.9172,-1.9228,-1.9244,-1.9225,-1.923,-1.9377,-1.9378,-1.938,-1.9362,0,0,0,0,0,0,-1.8811,-1.883,-1.8848,-1.8909,-1.893,-1.9011,-1.9014,-1.9024,-1.9054,-1.9056,-1.9118,-1.9128,-1.9159,-1.922,-1.9233,-1.9251,-1.9234,-1.9375,-1.9377,-1.9379,-1.9361,-1.9362,-1.9364,0,0,0,0,0,-1.8805,-1.8839,-1.8848,-1.8864,-1.8953,-1.9012,-1.9024,-1.9058,-1.9055,-1.9074,-1.9111,-1.9126,-1.9241,-1.9225,-1.924,-1.926,-1.9374,-1.9377,-1.9379,-1.936,-1.9362,-1.9363,0,0,0,0,0,0,-1.8778,-1.8847,-1.8859,-1.8914,-1.8957,-1.9018,-1.9043,-1.9059,-1.9104,-1.9104,-1.9145,-1.9159,-1.9212,-1.9242,-1.9223,-1.9311,-1.9308,-1.9314,-1.9289,-1.9291,-1.9292,-1.9284,-1.9239,0,0,0,0,0,-1.8778,-1.882,-1.8878,-1.8921,-1.8942,-1.8988,-1.9015,-1.9038,-1.9085,-1.9103,-1.9144,-1.9189,-1.9236,-1.9265,-1.9311,-1.9366,-1.938,-1.9388,-1.9389,-1.9389,-1.9393,-1.9425,-1.9429,-1.9387,-1.9387,-1.9387,0,0,-1.878,-1.8823,-1.8846,-1.8917,-1.8953,-1.8995,-1.9004,-1.9048,-1.908,-1.911,-1.9165,-1.9197,-1.925,-1.9306,-1.9333,-1.9333,-1.9408,-1.9392,-1.9393,-1.9396,-1.9428,-1.9432,-1.9435,-1.9389,-1.9389,-1.9388,0,0,-1.8804,-1.884,-1.888,-1.8916,-1.897,-1.9001,-1.9011,-1.907,-1.9092,-1.9148,-1.9171,-1.9211,-1.929,-1.9327,-1.9356,-1.9395,-1.9411,-1.9409,-1.9416,-1.9446,-1.945,-1.9453,-1.9467,-1.9471,-1.9413,-1.9413,-1.9413,0,-1.8799,-1.8863,-1.8899,-1.8942,-1.8973,-1.9001,-1.9042,-1.9076,-1.9143,-1.9164,-1.9163,-1.9263,-1.9301,-1.9366,-1.9375,-1.9398,-1.9411,-1.9402,-1.9446,-1.945,-1.9453,-1.9467,-1.9472,-1.9413,-1.9413,-1.9413,-1.9413,0,-1.8855,-1.8899,-1.8925,-1.8988,-1.9021,-1.9063,-1.9106,-1.9136,-1.9156,-1.9187,-1.9245,-1.9291,-1.9347,-1.9365,-1.9385,-1.9433,-1.9431,-1.9438,-1.9436,-1.9456,-1.947,-1.9475,-1.9412,-1.9412,-1.9412,-1.9412,0,0,-1.8864,-1.8947,-1.8956,-1.8985,-1.9047,-1.9083,-1.9127,-1.9181,-1.9206,-1.9251,-1.929,-1.9356,-1.9363,-1.9396,-1.9421,-1.9448,-1.9476,-1.9451,-1.9453,-1.9454,-1.9532,-1.9527,-1.9532,-1.9487,-1.9488,-1.9489,-1.9528,0,-1.8896,-1.8975,-1.9008,-1.9072,-1.9113,-1.9142,-1.918,-1.9223,-1.9254,-1.9295,-1.9329,-1.9376,-1.9381,-1.9401,-1.9429,-1.9467,-1.9492,-1.9464,-1.9524,-1.9525,-1.9509,-1.9539,-1.9534,-1.9567,-1.9534,-1.9534,-1.9535,0,-1.8944,-1.8989,-1.9056,-1.9114,-1.9133,-1.9166,-1.9219,-1.9258,-1.9307,-1.9328,-1.9365,-1.9389,-1.9437,-1.9433,-1.95,-1.948,-1.9507,-1.9529,-1.9531,-1.9537,-1.9531,-1.9546,-1.9579,-1.9584,-1.9544,-1.9543,-1.9543,0,-1.8944,-1.9022,-1.9072,-1.9096,-1.9165,-1.9188,-1.9218,-1.9267,-1.9298,-1.9344,-1.9365,-1.9416,-1.9445,-1.9485,-1.9522,-1.9515,-1.9586,-1.9585,-1.9605,-1.9604,-1.9618,-1.9617,-1.9655,-1.9636,-1.9636,-1.9636,-1.9635,0,-1.8976,-1.9016,-1.9073,-1.9104,-1.915,-1.9189,-1.9234,-1.9266,-1.931,-1.9348,-1.9376,-1.9412,-1.9459,-1.9501,-1.9531,-1.9583,-1.9595,-1.9614,-1.9621,-1.9611,-1.9609,-1.9628,-1.9627,-1.9637,-1.9637,-1.9636,-1.9636,0,-1.8984,-1.9024,-1.908,-1.9141,-1.9157,-1.9188,-1.9241,-1.9272,-1.9305,-1.9353,-1.9367,-1.9418,-1.9469,-1.951,-1.9577,-1.9597,-1.9651,-1.9659,-1.9633,-1.9637,-1.9655,-1.9653,-1.9708,-1.9717,-1.9691,-1.9691,-1.9692,0,-1.9002,-1.9033,-1.9097,-1.9124,-1.9153,-1.9197,-1.9229,-1.9269,-1.93,-1.936,-1.9384,-1.9437,-1.9481,-1.9562,-1.9605,-1.9657,-1.9667,-1.9683,-1.9675,-1.9664,-1.9667,-1.9665,-1.9668,-1.9683,-1.9683,-1.9683,-1.9683,0,-1.9029,-1.9047,-1.9091,-1.9141,-1.9177,-1.9219,-1.9262,-1.9283,-1.9332,-1.9366,-1.9418,-1.9452,-1.952,-1.9573,-1.9629,-1.9661,-1.9681,-1.9686,-1.9693,-1.9683,-1.9666,-1.9675,-1.9635,-1.9684,-1.9684,-1.9684,-1.9684,-1.9684,-1.9043,-1.9072,-1.9121,-1.9169,-1.9205,-1.9245,-1.9277,-1.9314,-1.9357,-1.9415,-1.9437,-1.949,-1.954,-1.9618,-1.965,-1.9693,-1.9695,-1.9706,-1.9709,-1.9711,-1.9709,-1.966,-1.9704,-1.9704,-1.9704,-1.9704,-1.9704,0,-1.9071,-1.9105,-1.9148,-1.9206,-1.9244,-1.9259,-1.9307,-1.9338,-1.9384,-1.9429,-1.9472,-1.9532,-1.9583,-1.9631,-1.9684,-1.971,-1.972,-1.9723,-1.9721,-1.9728,-1.9704,-1.9692,-1.9713,-1.9713,-1.9713,-1.9713,-1.9713,-1.9713,-1.9091,-1.9141,-1.9165,-1.9234,-1.9267,-1.9319,-1.9345,-1.9382,-1.9418,-1.9484,-1.9526,-1.9556,-1.9603,-1.966,-1.9708,-1.9721,-1.9739,-1.9739,-1.9754,-1.9731,-1.973,-1.9728,-1.9717,-1.9743,-1.9743,-1.9775,-1.9775,-1.9775]},{"header":{"parameterUnit":"m.s-1","parameterCategory":1,"la1":30.2991,"la2":30.254,"lo1":-89.0895,"lo2":-89.0444,"dy":0.0017,"dx":0.0017,"nx":28,"ny":28,"refTime":"2025-04-17T09:00:00:Z","depth":0,"parameterNumber":3,"parameterNumberName":"V-component_of_WINDS"},"data":[0,0,0,0,0,0,0,0,0,0,0,0,0,0,0,0,0,0,0,0,0,0,0,0,0,0,0,0,0,0,0,0,0,0,0,0,0,0,0,0,0,0,0,0,0,0,0,0,0,0,0,0,0,0,0,0,0,0,6.0011,6.0011,0,6.0065,6.0065,6.0066,5.9988,5.9985,5.9982,5.998,6.0029,6.0033,6.0037,0,0,0,0,0,0,0,0,0,0,0,0,0,5.9834,5.9838,6.0011,6.0011,6.0012,6.0065,6.0065,6.0066,5.9988,5.9985,5.9982,5.9978,6.0028,6.0033,6.0037,0,0,0,0,0,0,0,0,0,0,0,0,0,5.9902,5.9839,6.0011,5.998,5.9978,6.0064,6.0065,6.0066,5.9989,5.9985,5.9981,5.9977,6.0027,6.0032,6.0038,6.0156,0,0,6.0056,6.0058,0,0,0,0,0,0,0,0,5.9898,5.9908,5.9984,5.9982,5.998,6.0015,6.0021,6.0096,5.999,5.9984,5.998,5.9975,6.0028,6.0033,6.0052,6.0158,6.016,6.0056,6.006,6.0062,6.0064,0,0,0,0,0,0,0,5.9893,5.9905,6.0032,5.9985,5.9982,5.9961,5.9966,6.0035,6.0028,5.9985,5.9979,5.9987,6.0026,6.0047,6.0053,6.0161,6.0056,6.0061,6.0065,6.0067,6.0365,6.0369,0,0,0,0,0,0,5.9893,5.9902,6.003,6.0033,5.9928,5.9968,5.9973,6.0008,6.0027,6.0026,5.999,5.9983,6.0039,6.0046,6.0054,6.0192,6.0062,6.0068,6.0071,6.036,6.0366,6.037,0,0,0,0,0,0,5.989,5.9906,6.0028,5.9966,5.998,5.9975,6.0015,6.0011,6.0032,6.0032,6.0029,6.0013,6.0036,6.0046,6.0131,6.0193,6.007,6.0076,6.0355,6.0362,6.0368,6.047,0,0,0,0,0,0,5.9885,5.9905,5.9951,5.9968,5.9984,6.0106,6.0019,6.0015,6.0043,6.0034,6.0053,6.0052,6.0033,6.0123,6.0137,6.0198,6.008,6.0349,6.0358,6.0366,6.0461,6.0479,6.0495,0,0,0,0,0,5.9879,5.9977,5.9954,5.997,6.0042,6.011,6.0119,6.0097,6.0048,6.0093,6.0093,6.0051,6.0184,6.0132,6.0147,6.0212,6.0345,6.0356,6.0365,6.0453,6.0475,6.0494,0,0,0,0,0,0,5.9965,5.9978,5.9953,6.006,6.0085,6.0097,6.0153,6.0122,6.016,6.0149,6.0119,6.0124,6.0215,6.0222,6.0164,6.0326,6.0256,6.027,6.0318,6.0339,6.0356,6.0351,6.0085,0,0,0,0,0,5.9997,6.0053,6.0061,6.0154,6.0168,6.0159,6.0187,6.0169,6.0192,6.0202,6.0208,6.0231,6.0277,6.0309,6.0352,6.0462,6.0463,6.0513,6.053,6.0544,6.0555,6.0612,6.0634,6.0403,6.0403,6.0403,0,0,6.0062,6.0076,6.0113,6.0171,6.0188,6.0245,6.0168,6.0231,6.0272,6.0211,6.0292,6.0297,6.0321,6.0418,6.0462,6.0427,6.062,6.0557,6.0568,6.0572,6.0624,6.0646,6.0666,6.041,6.0409,6.0407,0,0,6.021,6.0227,6.0306,6.0325,6.0352,6.0346,6.0365,6.0382,6.0383,6.0465,6.042,6.0467,6.0549,6.0567,6.0587,6.0741,6.0703,6.0756,6.0843,6.0899,6.0917,6.0933,6.0986,6.1006,6.0768,6.0768,6.0768,0,6.0287,6.0372,6.035,6.0417,6.0442,6.0392,6.047,6.0489,6.0528,6.0546,6.0507,6.0608,6.062,6.0721,6.0758,6.0777,6.0796,6.0753,6.0917,6.0933,6.0947,6.0997,6.1018,6.0774,6.0773,6.0773,6.0772,0,6.0465,6.0525,6.0584,6.0626,6.0658,6.073,6.0717,6.0752,6.0731,6.0728,6.081,6.0823,6.0867,6.089,6.0869,6.0987,6.0964,6.0922,6.0851,6.0975,6.1022,6.1041,6.0783,6.0781,6.0779,6.0777,0,0,6.0667,6.0695,6.0718,6.0735,6.0761,6.0806,6.0875,6.092,6.095,6.0979,6.1034,6.1104,6.1065,6.1088,6.1068,6.1118,6.1237,6.1068,6.1068,6.1097,6.1365,6.1396,6.1419,6.1212,6.1216,6.1219,6.1362,0,6.0813,6.0934,6.0916,6.1031,6.1085,6.1037,6.1097,6.1118,6.1117,6.1161,6.1159,6.1208,6.1154,6.1167,6.1214,6.1212,6.129,6.1202,6.1261,6.1264,6.1255,6.1443,6.1476,6.1611,6.1381,6.1384,6.1386,0,6.1,6.1037,6.1158,6.1175,6.1197,6.1251,6.129,6.1334,6.1356,6.1351,6.1377,6.1349,6.1415,6.1345,6.1435,6.1376,6.1399,6.1402,6.1407,6.141,6.1331,6.145,6.1654,6.1673,6.1415,6.1413,6.1411,0,6.1133,6.1213,6.1296,6.1312,6.1335,6.1374,6.1384,6.1403,6.1431,6.1465,6.1482,6.1522,6.1544,6.1575,6.1558,6.1509,6.165,6.1579,6.1646,6.1646,6.1676,6.1674,6.1885,6.1695,6.1695,6.1694,6.1694,0,6.1297,6.1373,6.1356,6.1407,6.1489,6.1467,6.1548,6.1553,6.157,6.1619,6.1581,6.1627,6.1602,6.1646,6.1633,6.1708,6.1719,6.1715,6.171,6.1718,6.1718,6.1731,6.1721,6.17,6.1698,6.1697,6.1696,0,6.1459,6.1451,6.1538,6.1553,6.1558,6.1618,6.1629,6.1675,6.1672,6.1734,6.1747,6.1741,6.179,6.1777,6.183,6.1821,6.1916,6.19,6.1909,6.1904,6.1972,6.1965,6.2197,6.2225,6.2018,6.202,6.2022,0,6.1563,6.1621,6.1642,6.1673,6.1687,6.1737,6.1766,6.1745,6.1776,6.1806,6.1848,6.1895,6.1931,6.2012,6.2011,6.2051,6.2035,6.2113,6.204,6.2046,6.2034,6.203,6.2034,6.2127,6.213,6.2132,6.2133,0,6.1749,6.1742,6.1786,6.1828,6.1863,6.1895,6.1923,6.195,6.1931,6.1967,6.2018,6.2047,6.2102,6.2148,6.2185,6.2193,6.216,6.2156,6.2174,6.2181,6.2183,6.2181,6.1946,6.2151,6.2149,6.2148,6.2147,6.2146,6.1884,6.1932,6.1954,6.2003,6.2023,6.2049,6.2093,6.2095,6.2138,6.2183,6.2167,6.2226,6.2245,6.2291,6.2305,6.2349,6.2319,6.2344,6.235,6.2357,6.2364,6.2178,6.2356,6.2355,6.2355,6.2354,6.2354,0,6.2066,6.2078,6.2124,6.2164,6.2203,6.217,6.2198,6.2232,6.2284,6.2306,6.2343,6.2401,6.2445,6.2448,6.2489,6.2523,6.2509,6.2535,6.2531,6.2533,6.239,6.237,6.2546,6.2546,6.2546,6.2545,6.2545,6.2545,6.2165,6.2244,6.224,6.2327,6.2338,6.2396,6.2415,6.2439,6.2456,6.2523,6.256,6.2562,6.2576,6.2618,6.2656,6.2655,6.2671,6.2703,6.2696,6.2562,6.2543,6.2525,6.2506,6.2707,6.2707,6.2835,6.2837,6.2838]}]]